Stündliche Wetter Warnik

Heute, 24 Oktober, Samstag

Zeit Temperatur Niederschläge Wind Luftdruck Luftfeuchtigkeit
00:00 +12°C° 0 mm 2 m/S 750 mmHg 95%
01:00 +10°C° 0 mm 2 m/S 750 mmHg 95%
02:00 +10°C° 0 mm 2 m/S 750 mmHg 96%
03:00 +10°C° 0 mm 2 m/S 750 mmHg 96%
04:00 +10°C° 0 mm 3 m/S 750 mmHg 96%
05:00 +10°C° 0 mm 3 m/S 750 mmHg 96%
06:00 +10°C° 0 mm 3 m/S 751 mmHg 96%
07:00 +10°C° 0 mm 4 m/S 751 mmHg 96%
08:00 +11°C° 0 mm 4 m/S 751 mmHg 90%
09:00 +12°C° 0 mm 5 m/S 751 mmHg 85%
10:00 +13°C° 0 mm 6 m/S 752 mmHg 80%
11:00 +14°C° 0 mm 6 m/S 752 mmHg 77%
12:00 +14°C° 0 mm 6 m/S 752 mmHg 74%
13:00 +15°C° 0 mm 6 m/S 752 mmHg 72%
14:00 +14°C° 0 mm 5 m/S 752 mmHg 73%
15:00 +14°C° 0 mm 4 m/S 752 mmHg 75%
16:00 +13°C° 0 mm 3 m/S 752 mmHg 77%
17:00 +13°C° 0.1 mm 3 m/S 752 mmHg 79%
18:00 +13°C° 0.1 mm 3 m/S 752 mmHg 81%
19:00 +12°C° 0.1 mm 3 m/S 752 mmHg 84%
20:00 +12°C° 0.1 mm 3 m/S 752 mmHg 84%
21:00 +12°C° 0.1 mm 3 m/S 752 mmHg 85%
22:00 +12°C° 0.1 mm 4 m/S 752 mmHg 85%
23:00 +11°C° 0 mm 4 m/S 752 mmHg 85%

Morgen, 25 Oktober, Sonntag

Zeit Temperatur Niederschläge Wind Luftdruck Luftfeuchtigkeit
00:00 +11°C° 0 mm 4 m/S 752 mmHg 85%
01:00 +11°C° 0 mm 4 m/S 752 mmHg 85%
02:00 +10°C° 0 mm 4 m/S 752 mmHg 87%
03:00 +10°C° 0 mm 4 m/S 751 mmHg 89%
04:00 +8°C° 0 mm 4 m/S 751 mmHg 91%
05:00 +8°C° 0 mm 4 m/S 751 mmHg 91%
06:00 +8°C° 0 mm 4 m/S 751 mmHg 91%
07:00 +8°C° 0 mm 5 m/S 751 mmHg 91%
08:00 +9°C° 0 mm 5 m/S 751 mmHg 85%
09:00 +11°C° 0 mm 6 m/S 750 mmHg 78%
10:00 +13°C° 0 mm 6 m/S 750 mmHg 72%
11:00 +14°C° 0 mm 6 m/S 750 mmHg 68%
12:00 +15°C° 0 mm 6 m/S 750 mmHg 65%
13:00 +16°C° 0 mm 6 m/S 749 mmHg 61%
14:00 +15°C° 0 mm 5 m/S 749 mmHg 64%
15:00 +15°C° 0 mm 5 m/S 748 mmHg 67%
16:00 +14°C° 0 mm 4 m/S 748 mmHg 70%
17:00 +14°C° 0 mm 4 m/S 748 mmHg 72%
18:00 +13°C° 0 mm 5 m/S 748 mmHg 74%
19:00 +13°C° 0 mm 5 m/S 748 mmHg 77%
20:00 +13°C° 0 mm 5 m/S 748 mmHg 77%
21:00 +12°C° 0 mm 5 m/S 748 mmHg 77%
22:00 +12°C° 0 mm 5 m/S 748 mmHg 78%
23:00 +12°C° 0 mm 4 m/S 747 mmHg 80%

übermorgen, 26 Oktober, Montag

Zeit Temperatur Niederschläge Wind Luftdruck Luftfeuchtigkeit
00:00 +11°C° 0 mm 4 m/S 747 mmHg 82%
01:00 +11°C° 0 mm 3 m/S 747 mmHg 85%
02:00 +10°C° 0 mm 3 m/S 747 mmHg 86%
03:00 +10°C° 0 mm 2 m/S 747 mmHg 88%
04:00 +10°C° 0 mm 2 m/S 747 mmHg 90%
05:00 +10°C° 0 mm 2 m/S 747 mmHg 90%
06:00 +10°C° 0 mm 2 m/S 747 mmHg 90%
07:00 +11°C° 0 mm 1 m/S 747 mmHg 90%
08:00 +10°C° 0 mm 2 m/S 747 mmHg 87%
09:00 +12°C° 0 mm 2 m/S 747 mmHg 84%
10:00 +13°C° 0 mm 2 m/S 747 mmHg 81%
11:00 +13°C° 0.2 mm 2 m/S 747 mmHg 82%
12:00 +13°C° 0.2 mm 2 m/S 747 mmHg 83%
13:00 +11°C° 0.2 mm 3 m/S 747 mmHg 84%
14:00 +12°C° 0.3 mm 2 m/S 747 mmHg 87%
15:00 +10°C° 0.3 mm 2 m/S 746 mmHg 90%
16:00 +10°C° 0.3 mm 2 m/S 746 mmHg 92%
17:00 +10°C° 0.2 mm 2 m/S 747 mmHg 92%
18:00 +9°C° 0.2 mm 2 m/S 747 mmHg 92%
19:00 +9°C° 0.2 mm 2 m/S 747 mmHg 92%
20:00 +9°C° 0 mm 2 m/S 747 mmHg 92%
21:00 +10°C° 0 mm 1 m/S 748 mmHg 92%
22:00 +9°C° 0 mm 1 m/S 748 mmHg 92%
23:00 +8°C° 0 mm 2 m/S 748 mmHg 93%

, 27 Oktober, Dienstag

Zeit Temperatur Niederschläge Wind Luftdruck Luftfeuchtigkeit
00:00 +8°C° 0 mm 2 m/S 748 mmHg 93%
01:00 +8°C° 0 mm 2 m/S 748 mmHg 94%
02:00 +8°C° 0 mm 2 m/S 748 mmHg 94%
03:00 +8°C° 0 mm 2 m/S 748 mmHg 93%
04:00 +8°C° 0 mm 2 m/S 748 mmHg 93%
05:00 +8°C° 0 mm 2 m/S 748 mmHg 92%
06:00 +8°C° 0 mm 2 m/S 749 mmHg 92%
07:00 +8°C° 0 mm 2 m/S 749 mmHg 91%
08:00 +9°C° 0 mm 2 m/S 749 mmHg 87%
09:00 +10°C° 0 mm 3 m/S 749 mmHg 82%
10:00 +10°C° 0 mm 3 m/S 749 mmHg 78%
11:00 +11°C° 0 mm 3 m/S 749 mmHg 76%
12:00 +11°C° 0 mm 3 m/S 749 mmHg 74%
13:00 +12°C° 0 mm 4 m/S 749 mmHg 71%
14:00 +11°C° 0 mm 3 m/S 749 mmHg 74%
15:00 +11°C° 0 mm 3 m/S 749 mmHg 76%
16:00 +11°C° 0 mm 3 m/S 749 mmHg 79%
17:00 +10°C° 0 mm 3 m/S 749 mmHg 81%
18:00 +10°C° 0 mm 3 m/S 750 mmHg 84%
19:00 +9°C° 0 mm 3 m/S 750 mmHg 86%
20:00 +8°C° 0 mm 3 m/S 750 mmHg 87%
21:00 +8°C° 0 mm 3 m/S 750 mmHg 89%
22:00 +7°C° 0 mm 3 m/S 750 mmHg 90%
23:00 +6°C° 0 mm 4 m/S 750 mmHg 90%

27 Oktober, Dienstag

Zeit Temperatur Niederschläge Wind Luftdruck Luftfeuchtigkeit
00:00 +8°C° 0 mm 2 m/S 748 mmHg 93%
01:00 +8°C° 0 mm 2 m/S 748 mmHg 94%
02:00 +8°C° 0 mm 2 m/S 748 mmHg 94%
03:00 +8°C° 0 mm 2 m/S 748 mmHg 93%
04:00 +8°C° 0 mm 2 m/S 748 mmHg 93%
05:00 +8°C° 0 mm 2 m/S 748 mmHg 92%
06:00 +8°C° 0 mm 2 m/S 749 mmHg 92%
07:00 +8°C° 0 mm 2 m/S 749 mmHg 91%
08:00 +9°C° 0 mm 2 m/S 749 mmHg 87%
09:00 +10°C° 0 mm 3 m/S 749 mmHg 82%
10:00 +10°C° 0 mm 3 m/S 749 mmHg 78%
11:00 +11°C° 0 mm 3 m/S 749 mmHg 76%
12:00 +11°C° 0 mm 3 m/S 749 mmHg 74%
13:00 +12°C° 0 mm 4 m/S 749 mmHg 71%
14:00 +11°C° 0 mm 3 m/S 749 mmHg 74%
15:00 +11°C° 0 mm 3 m/S 749 mmHg 76%
16:00 +11°C° 0 mm 3 m/S 749 mmHg 79%
17:00 +10°C° 0 mm 3 m/S 749 mmHg 81%
18:00 +10°C° 0 mm 3 m/S 750 mmHg 84%
19:00 +9°C° 0 mm 3 m/S 750 mmHg 86%
20:00 +8°C° 0 mm 3 m/S 750 mmHg 87%
21:00 +8°C° 0 mm 3 m/S 750 mmHg 89%
22:00 +7°C° 0 mm 3 m/S 750 mmHg 90%
23:00 +6°C° 0 mm 4 m/S 750 mmHg 90%

28 Oktober, Mittwoch

Zeit Temperatur Niederschläge Wind Luftdruck Luftfeuchtigkeit
00:00 +6°C° 0 mm 4 m/S 750 mmHg 90%
01:00 +6°C° 0 mm 4 m/S 750 mmHg 89%
02:00 +6°C° 0 mm 4 m/S 749 mmHg 89%
03:00 +5°C° 0 mm 4 m/S 749 mmHg 90%
04:00 +5°C° 0 mm 5 m/S 749 mmHg 90%
05:00 +6°C° 0 mm 5 m/S 749 mmHg 88%
06:00 +5°C° 0 mm 6 m/S 749 mmHg 86%
07:00 +5°C° 0 mm 6 m/S 749 mmHg 85%
08:00 +5°C° 0.1 mm 6 m/S 749 mmHg 84%
09:00 +7°C° 0.1 mm 6 m/S 749 mmHg 82%
10:00 +7°C° 0.1 mm 6 m/S 749 mmHg 81%
11:00 +8°C° 0.1 mm 6 m/S 749 mmHg 80%
12:00 +8°C° 0.1 mm 6 m/S 749 mmHg 79%
13:00 +9°C° 0.1 mm 6 m/S 749 mmHg 77%
14:00 +9°C° 0.1 mm 5 m/S 749 mmHg 78%
15:00 +9°C° 0.1 mm 5 m/S 749 mmHg 79%
16:00 +9°C° 0.1 mm 5 m/S 749 mmHg 80%
17:00 +8°C° 0 mm 4 m/S 749 mmHg 81%
18:00 +8°C° 0 mm 4 m/S 749 mmHg 83%
19:00 +7°C° 0 mm 4 m/S 749 mmHg 85%
20:00 +7°C° 0 mm 4 m/S 749 mmHg 85%
21:00 +8°C° 0 mm 5 m/S 749 mmHg 85%
22:00 +8°C° 0 mm 5 m/S 749 mmHg 85%
23:00 +8°C° 0 mm 5 m/S 749 mmHg 85%

29 Oktober, Donnerstag

Zeit Temperatur Niederschläge Wind Luftdruck Luftfeuchtigkeit
00:00 +8°C° 0 mm 5 m/S 749 mmHg 85%
01:00 +8°C° 0 mm 5 m/S 749 mmHg 85%
02:00 +8°C° 0 mm 5 m/S 749 mmHg 85%
03:00 +7°C° 0 mm 5 m/S 749 mmHg 86%
04:00 +7°C° 0 mm 5 m/S 749 mmHg 86%
05:00 +8°C° 0 mm 5 m/S 749 mmHg 85%
06:00 +8°C° 0 mm 5 m/S 749 mmHg 85%
07:00 +8°C° 0 mm 5 m/S 749 mmHg 84%
08:00 +9°C° 0.1 mm 6 m/S 749 mmHg 80%
09:00 +9°C° 0.1 mm 6 m/S 750 mmHg 75%
10:00 +10°C° 0.1 mm 7 m/S 750 mmHg 71%
11:00 +10°C° 0.1 mm 7 m/S 750 mmHg 69%
12:00 +10°C° 0.1 mm 7 m/S 751 mmHg 68%
13:00 +11°C° 0.1 mm 7 m/S 751 mmHg 66%
14:00 +10°C° 0 mm 6 m/S 751 mmHg 68%
15:00 +10°C° 0 mm 5 m/S 752 mmHg 70%
16:00 +11°C° 0 mm 4 m/S 752 mmHg 72%
17:00 +10°C° 0 mm 4 m/S 752 mmHg 75%
18:00 +10°C° 0 mm 4 m/S 753 mmHg 77%
19:00 +8°C° 0 mm 4 m/S 753 mmHg 80%
20:00 +8°C° 0 mm 5 m/S 753 mmHg 78%
21:00 +9°C° 0 mm 5 m/S 753 mmHg 76%
22:00 +9°C° 0 mm 5 m/S 753 mmHg 74%
23:00 +9°C° 0.1 mm 6 m/S 753 mmHg 75%
Mehr zeigen

Wir brauchen deine Erlaubnis

Meteoprog und unser Service Anbieter werden persönliche Daten aufbewahren, so wie Cookies, Geräte Bezeichnung oder ähnliche Technologien von deinem Gerät und Prozess, so wie Persönliche Daten Inhalte und Werbungen, genauso wie social Media und den Verkehr zu analysieren.

  • Aufbewahrung und/oder Zugang zu deiner Geräte Informationen.

    Cookies, Geräte Bezeichnung oder andere Informationen, können aufbewahrt oder Zugang zu deinem Gerät erhalten, für den Grund, der oben angegeben wird.

  • Personalisierte Werbung und Inhalte, Messungen, Einblick in das Publikum und Produkt Entwicklung.

    Werbungen und Inhalte können personalisiert werden, basierend auf ein Profil. Mehr Daten können besser personalisierte Werbungen und Inhalte hinzufügen. Werbung und Inhalte können gezeigt und gemessen werden. Einblicke über das Publikum, welche die Werbung gesehen haben und den Inhalt, können abgeleitet werden. So wie Daten können genutzt werden, um es zu verbessern oder die Benutzer Erfahrung zu verbessern das System und die Software.

Wenn du “Ich stimme zu” klickst, erlaubst du uns, die Cookies zu benutzen die Geräte Bezeichnung, den Web oder ähnliche Technologien zu benutzen. Deine Settings, können in deinem Gerät bei deinem Browser geändert werden.

Für den bestimmten Zweck, berechtigten Interessen beruhen darauf, mehr als auf den Inhalt. Du kannst mehr darüber in unseren Privaten und Cookie Politik lesen.